[[{"header":{"parameterUnit":"m.s-1","parameterCategory":1,"la1":30.2992,"la2":30.254,"lo1":-89.0895,"lo2":-89.0443,"dy":0.0025,"dx":0.0025,"nx":19,"ny":19,"refTime":"2026-04-02T03:00:00:Z","depth":0,"parameterNumber":2,"parameterNumberName":"U-component_of_WINDS"},"data":[0,0,0,-4.5305,-4.5308,-4.544,-4.5441,-4.5618,-4.5619,0,0,0,0,0,0,0,0,0,0,0,-4.5271,-4.5272,-4.5305,-4.5308,-4.544,-4.5441,-4.5617,-4.5619,0,0,0,0,0,0,0,0,0,0,0,-4.527,-4.5272,-4.5273,-4.5309,-4.544,-4.5441,-4.5617,-4.5514,0,0,0,0,0,0,0,0,0,0,-4.5384,-4.5358,-4.5271,-4.5273,-4.5309,-4.544,-4.5441,-4.5509,-4.5521,-4.5561,0,-4.5599,0,-4.5612,-4.5632,-4.5632,0,0,0,-4.5304,-4.5348,-4.5379,-4.5274,-4.5311,-4.544,-4.5379,-4.5515,-4.5528,-4.5576,-4.5601,-4.5608,-4.5615,-4.5633,-4.5634,-4.5882,-4.5883,0,0,-4.5297,-4.5297,-4.5371,-4.5388,-4.5369,-4.5375,-4.5384,-4.5523,-4.555,-4.5602,-4.5612,-4.5618,-4.5634,-4.5635,-4.588,-4.5882,0,0,0,-4.5278,-4.5292,-4.532,-4.5381,-4.5404,-4.5379,-4.5389,-4.5544,-4.5553,-4.5613,-4.562,-4.5635,-4.5637,-4.5879,-4.5881,-4.5947,0,0,0,-4.5274,-4.5281,-4.5317,-4.5318,-4.5402,-4.5476,-4.5407,-4.5543,-4.5559,-4.5619,-4.5635,-4.5639,-4.5877,-4.588,-4.5942,-4.5977,0,0,0,-4.526,-4.528,-4.5301,-4.5318,-4.5375,-4.5474,-4.5491,-4.5547,-4.5563,-4.5632,-4.564,-4.5876,-4.5879,-4.5937,-4.597,-4.6041,0,0,0,-4.5246,-4.5357,-4.5302,-4.5429,-4.5374,-4.5514,-4.549,-4.5594,-4.5662,-4.5636,-4.5878,-4.5881,-4.5936,-4.5965,-4.6036,-4.61,-4.6127,0,0,-4.5387,-4.5374,-4.5449,-4.5404,-4.5554,-4.5494,-4.5654,-4.5715,-4.5721,-4.5828,-4.5834,-4.5943,-4.5969,-4.604,-4.6282,-4.6304,0,0,0,-4.5494,-4.5548,-4.5588,-4.5652,-4.5702,-4.5748,-4.5785,-4.5808,-4.5898,-4.5776,-4.599,-4.6005,-4.6047,-4.6077,-4.6095,-4.613,-4.5895,-4.5895,-4.5895,-4.5692,-4.5695,-4.5819,-4.5838,-4.5901,-4.5939,-4.599,-4.6027,-4.6011,-4.6062,-4.6092,-4.6239,-4.6274,-4.6288,-4.6325,-4.6128,-4.6128,-4.6129,-4.6129,-4.5897,-4.5973,-4.5951,-4.6063,-4.6065,-4.6159,-4.6201,-4.6186,-4.6274,-4.6216,-4.6253,-4.6187,-4.6312,-4.6343,-4.6134,-4.6133,-4.6132,-4.6132,-4.6131,-4.6025,-4.6062,-4.6089,-4.6183,-4.6255,-4.6271,-4.6356,-4.6356,-4.6356,-4.6393,-4.6424,-4.6423,-4.642,-4.6408,-4.6409,-4.6409,-4.641,-4.641,-4.641,-4.6147,-4.6175,-4.6247,-4.6311,-4.6352,-4.6407,-4.6447,-4.6488,-4.6532,-4.6525,-4.6525,-4.6504,-4.6324,-4.6278,-4.6418,-4.6417,-4.6416,-4.6415,-4.6414,-4.6349,-4.6304,-4.6415,-4.6456,-4.6531,-4.6602,-4.6602,-4.6685,-4.6719,-4.6761,-4.6733,-4.6601,-4.6587,-4.6573,-4.6534,-4.6732,-4.6732,-4.6732,-4.6733,-4.6456,-4.645,-4.6563,-4.663,-4.6695,-4.6706,-4.6831,-4.6864,-4.6891,-4.6912,-4.6884,-4.6833,-4.6819,-4.6814,-4.6794,-4.6758,-4.7009,-4.7009,-4.7009,-4.658,-4.658,-4.6686,-4.6712,-4.6771,-4.6822,-4.6939,-4.7016,-4.7037,-4.7021,-4.6928,-4.6916,-4.6835,-4.6809,-4.6787,-4.6757,-4.669,0,0]},{"header":{"parameterUnit":"m.s-1","parameterCategory":1,"la1":30.2992,"la2":30.254,"lo1":-89.0895,"lo2":-89.0443,"dy":0.0025,"dx":0.0025,"nx":19,"ny":19,"refTime":"2026-04-02T03:00:00:Z","depth":0,"parameterNumber":3,"parameterNumberName":"V-component_of_WINDS"},"data":[0,0,0,3.7229,3.7231,3.7314,3.7314,3.7426,3.7427,0,0,0,0,0,0,0,0,0,0,0,3.7209,3.721,3.7229,3.7231,3.7314,3.7314,3.7426,3.7427,0,0,0,0,0,0,0,0,0,0,0,3.7208,3.7209,3.7211,3.7231,3.7314,3.7314,3.7425,3.736,0,0,0,0,0,0,0,0,0,0,3.7279,3.7265,3.7209,3.7211,3.7232,3.7314,3.7314,3.7357,3.7365,3.7391,0,3.7417,0,3.7424,3.7435,3.7435,0,0,0,3.7227,3.7259,3.7277,3.7211,3.7233,3.7314,3.7275,3.7361,3.7369,3.7401,3.7418,3.7422,3.7426,3.7436,3.7436,3.7606,3.7607,0,0,3.7223,3.7225,3.7272,3.7283,3.7272,3.7273,3.7278,3.7366,3.7385,3.7419,3.7425,3.7428,3.7436,3.7437,3.7605,3.7606,0,0,0,3.7212,3.7222,3.7239,3.7279,3.7293,3.7275,3.7281,3.7381,3.7386,3.7426,3.7429,3.7437,3.7438,3.7604,3.7606,3.7658,0,0,0,3.7209,3.7216,3.7237,3.7239,3.7292,3.7338,3.7294,3.738,3.739,3.7428,3.7437,3.744,3.7603,3.7605,3.7654,3.7681,0,0,0,3.7202,3.7215,3.7229,3.7239,3.7276,3.7337,3.7347,3.7382,3.7392,3.7435,3.744,3.7602,3.7604,3.7651,3.7676,3.7728,0,0,0,3.7194,3.7272,3.723,3.7318,3.7275,3.7369,3.7346,3.7416,3.7459,3.7438,3.7603,3.7605,3.765,3.7672,3.7725,3.7773,3.7794,0,0,3.7294,3.7284,3.7336,3.7301,3.7403,3.7356,3.7466,3.7501,3.7502,3.7571,3.7575,3.7655,3.7676,3.7728,3.7907,3.7923,0,0,0,3.7368,3.7406,3.7432,3.7475,3.7506,3.7535,3.7555,3.7568,3.7628,3.7539,3.7688,3.77,3.773,3.7753,3.7767,3.7794,3.7616,3.7616,3.7616,3.7512,3.7511,3.7597,3.7607,3.7649,3.767,3.7704,3.7726,3.771,3.7746,3.7766,3.7875,3.7902,3.7913,3.794,3.7791,3.7792,3.7792,3.7792,3.7658,3.7711,3.7693,3.777,3.7768,3.7832,3.7856,3.7844,3.7903,3.7859,3.7885,3.7837,3.7931,3.7955,3.7796,3.7795,3.7795,3.7794,3.7794,3.7752,3.7778,3.7795,3.786,3.7909,3.7916,3.7975,3.7971,3.7967,3.7994,3.8016,3.8015,3.8014,3.8005,3.8005,3.8005,3.8006,3.8006,3.8006,3.7843,3.7862,3.7913,3.7955,3.7984,3.8021,3.8045,3.8072,3.8102,3.8094,3.8094,3.8076,3.794,3.7906,3.8012,3.8011,3.801,3.801,3.8009,3.7993,3.7959,3.8038,3.8068,3.8118,3.8169,3.8164,3.8221,3.8243,3.8273,3.825,3.815,3.8139,3.8128,3.81,3.8249,3.8249,3.8249,3.8249,3.8073,3.8068,3.815,3.8197,3.8242,3.8247,3.8337,3.8358,3.8373,3.8387,3.8364,3.8327,3.8316,3.8311,3.8296,3.827,3.846,3.846,3.846,3.8165,3.8165,3.8243,3.826,3.83,3.8334,3.842,3.8474,3.8484,3.8469,3.8398,3.8389,3.8328,3.8309,3.8291,3.8267,3.8219,0,0]}]]